Tracking 20037 objects as of 20-Nov-2019
Live streaming from Space Station
objects crossing your sky now

LANDSAT 3

Track LANDSAT 3 now!
10-day predictions
LANDSAT 3 is classified as:


NORAD ID: 10702
Int'l Code: 1978-026A
Perigee: 902.5 km
Apogee: 922.4 km
Inclination: 98.8 °
Period: 103.1 minutes
Semi major axis: 7283 km
RCS: 3.0427 m2 (large)
Launch date: March 5, 1978
Source: United States (US)
Launch site: AIR FORCE WESTERN TEST RANGE (AFWTR)
aabbcc
Your satellite tracking list
Your tracking list is empty




NASA's NSSDC Master Catalog

Two Line Element Set (TLE):
1 10702U 78026A   19323.91297569 -.00000126 +00000-0 -60580-4 0  9993
2 10702 098.7568 320.1409 0013687 285.1561 132.4044 13.96679051126258
Source of the keplerian elements: AFSPC